EPKKEPWA

Guest
Details From EPKK - BALICE
To EPWA - WARSZAWA Okecie
Flight Number -
Tags decoded
Created
Modified
Stats Distance 134 nm / 249 km
Max Altitude 0 ft / 0 m
Waypoints 4
Social Downloads 0
Likes 0
Share VATSIM

Download

Looking for another format? Having issues loading an existing format? Contact us
Advertisement - Login to hide

Notes

Requested: EPKK JED ARDAG EPWA

Route

EPKK JED ARDAG EPWA

ID Type Via Altitude Latitude Longitude Leg Dist Tot Dist Heading (true) Name
O EPKK APT - 0 ft / 0 m 50.07782˚ 19.78550˚ - 0 nm - BALICE
JED VOR - 0 ft / 0 m 50.64732˚ 20.25121˚ 38 nm 38 nm 27° / 28° JEDOW VOR-DME
ARDAG FIX - 0 ft / 0 m 51.28444˚ 20.69389˚ 41 nm 80 nm 23° / 24° -
O EPWA APT - 0 ft / 0 m 52.16509˚ 20.96692˚ 53 nm 134 nm 11° / 11° WARSZAWA Okecie

Altitude Profile

Advertisement - Login to hide

EPKK

Details ICAO EPKK (KRK)
Name BALICE
Region Poland
Timezone Europe/Warsaw (UTC+2.0)
Stats Elevation 791 ft / 241 m (AMSL)
Location 50.077821° 19.785503°
Runways 1
Magnetic Variation 5.255° E

METAR

EPKK 230400Z 02003KT 310V070 9999 FEW046CB SCT057 13/12 Q1019

Decode

TAF

TAF TAF EPKK 230230Z 2303/2403 05004KT CAVOK TEMPO 2310/2322 VRB20G30KT 4000 TSRA BKN040CB TEMPO 2322/2403 4000 SHRA BKN030CB PROB30 TEMPO 2400/2403 0400 FG

Decode

Departure Runways

ID Width Length Bearing (true) Bearing (mag) Surface Threshold Offset Overrun Length
07 197 ft / 60 m 8,343 ft / 2,543 m 77.75° 72.49° Concrete 0 ft / 0 m 0 ft / 0 m
25 197 ft / 60 m 8,343 ft / 2,543 m 257.77° 252.51° Concrete 784 ft / 239 m 0 ft / 0 m

EPWA

Details ICAO EPWA (WAW)
Name WARSZAWA Okecie
Region Poland
Timezone Europe/Warsaw (UTC+2.0)
Stats Elevation 328 ft / 100 m (AMSL)
Location 52.165091° 20.966923°
Runways 2
Magnetic Variation 5.858° E

METAR

EPWA 230400Z 32003KT CAVOK 12/12 Q1019 NOSIG

Decode

TAF

TAF EPWA 230230Z 2303/2403 VRB03KT CAVOK PROB40 2303/2304 3500 BR BECMG 2306/2309 01010KT

Decode

Destination Runways

ID Width Length Bearing (true) Bearing (mag) Surface Threshold Offset Overrun Length
11 164 ft / 50 m 9,163 ft / 2,793 m 114.64° 108.78° Asphalt 0 ft / 0 m 476 ft / 145 m
15 197 ft / 60 m 12,112 ft / 3,692 m 151.85° 145.99° Asphalt 0 ft / 0 m 0 ft / 0 m
29 164 ft / 50 m 9,163 ft / 2,793 m 294.67° 288.81° Asphalt 1,608 ft / 490 m 0 ft / 0 m
33 197 ft / 60 m 12,112 ft / 3,692 m 331.87° 326.01° Asphalt 0 ft / 0 m 0 ft / 0 m

Approach Navaids

Runway Type Ident Frequency Range Bearing (true) Bearing (mag) Slope Elevation
11 Localiser WAS 109.90 MHz 18 nm / 33 km 114.53° 108.68° - 328 ft / 100 m (AMSL)
11 Glidescope WAS 109.90 MHz 10 nm / 19 km 114.66° 108.80° 3.00° 328 ft / 100 m (AMSL)
11 DME WAS 109.90 MHz 18 nm / 33 km - - - 394 ft / 120 m (AMSL)
33 Localiser WA 110.30 MHz 18 nm / 33 km 331.88° 326.02° - 328 ft / 100 m (AMSL)
33 Glidescope WA 110.30 MHz 10 nm / 19 km 331.86° 326.01° 3.00° 328 ft / 100 m (AMSL)
33 DME WA 110.30 MHz 18 nm / 33 km - - - 394 ft / 120 m (AMSL)

Popular Alternatives